Location: Katowice
(50.2611°N, 19.0242°E)
Time: 05:45:14
(UTC+02:00)

A-11 Canister half - Pass Details

Date: 23 July 2019
Orbit: 1526 x 1683 km, 47.3° (Epoch: 23 August)

Event Time Altitude Azimuth Distance (km) Brightness Sun altitude
Rises 04:00:25 0° 288° (WNW) 4,817 11.3 -8.1°
Reaches altitude 10° 04:04:16 10° 276° (W) 3,802 10.7 -7.6°
Maximum altitude 04:11:25 24° 228° (SW) 2,784 9.8 -6.8°
Drops below altitude 10° 04:18:26 10° 178° (S) 3,710 10.6 -6.0°
Sets 04:22:11 0° 166° (SSE) 4,676 11.3 -5.6°
